Temp
18 20 20 20 21 21 21 20 20 20 20 21 21 20 20 20 21 22 22 20 20 22 22 21 22 23 22 20 21 21 20 20 20 20 20 19 19 19 19 18 18 18 18 19 18 17 17 16 17 17 17 17 17 16 17 17 17 17 17 17 17 18 18 18 18 17 17 16 16 16 16 16 15 16 17 17 17 16 16 16 16 15 15 15 15 15
18 19 20 21 21 20 20 18 19 19 19 20 20 20 20 20 21 22 21 19 19 21 22 19 20 22 20 20 21 21 20 20 20 20 20 20 19 19 19 19 18 18 18 18 18 17 17 17 17 17 17 16 16 17 17 17 17 18 18 17 18 18 17 17 17 17 17 17 17 16 16 16 16 16 17 17 17 17 16 16 16 16 16 16 15 15
19 20 21 20 18 17 17 17 18 19 19 19 19 20 21 20 21 21 20 19 18 21 21 19 20 21 18 19 20 20 21 20 20 21 21 20 19 19 19 19 18 18 17 17 18 18 17 17 17 17 17 17 17 17 18 18 17 18 17 17 18 18 17 17 17 17 17 18 18 18 17 17 17 17 17 17 17 17 16 16 16 16 16 16 15 16
19 20 20 18 17 18 18 16 18 19 19 19 20 20 21 20 20 21 21 20 18 19 20 20 21 20 18 18 19 19 19 20 20 20 20 20 20 19 19 19 18 18 18 17 18 18 18 17 17 17 17 17 17 18 18 18 18 18 18 18 18 18 18 18 18 17 18 18 17 18 18 17 17 17 17 17 16 16 16 16 16 16 16 16 16 16
21 20 16 16 17 19 19 17 18 20 20 19 19 20 21 21 21 22 21 20 19 19 19 21 21 20 19 19 18 18 18 19 19 19 19 19 19 20 19 19 18 18 18 18 18 18 18 18 17 17 17 17 17 18 18 19 18 18 18 18 18 18 18 19 18 17 18 18 17 17 17 17 17 16 16 16 16 16 16 16 17 16 17 17 17 16
21 18 16 17 18 18 19 18 18 20 21 20 19 20 21 22 22 22 21 20 21 21 19 20 21 21 20 19 19 19 19 19 18 18 19 19 19 19 19 19 18 18 18 18 18 18 18 18 17 17 17 17 17 17 18 19 19 19 19 19 18 18 18 19 18 18 18 18 18 17 17 16 16 16 16 16 16 16 16 16 16 17 17 17 17 17
20 17 17 19 18 18 19 19 18 19 20 21 21 20 20 21 21 21 21 21 21 21 18 18 20 21 20 21 20 19 19 19 18 18 19 19 19 19 19 19 18 18 18 18 18 18 18 18 18 17 17 17 17 17 18 19 18 19 19 19 19 19 19 19 18 18 18 18 18 18 18 17 17 16 16 16 16 16 16 16 16 16 16 16 16 16
19 18 17 18 18 18 18 19 19 19 21 21 20 19 19 20 21 21 22 22 21 20 19 18 20 21 21 21 19 18 19 19 19 19 19 19 19 20 20 19 18 18 18 18 18 18 18 18 18 18 17 17 17 17 18 18 18 19 19 18 18 18 18 18 18 18 18 18 18 18 18 18 17 17 16 16 16 16 16 16 16 16 16 16 16 16
18 19 19 19 19 19 20 21 19 19 22 21 18 18 19 20 21 21 22 21 19 20 21 20 20 20 21 20 19 18 19 20 20 20 20 20 19 19 20 19 19 19 19 19 18 18 18 18 18 18 17 17 17 17 17 18 19 18 18 18 18 18 18 18 18 17 18 18 18 18 18 18 17 17 16 16 16 16 16 16 16 16 16 16 16 16
19 19 20 20 20 21 21 20 18 20 22 19 16 18 18 18 19 20 21 21 20 20 21 20 19 20 21 21 20 20 21 21 21 21 20 20 19 19 19 19 19 19 19 19 19 18 19 18 17 17 17 17 17 17 17 18 18 17 17 17 17 17 17 17 17 17 17 18 18 18 18 18 17 16 16 16 16 16 16 16 16 16 16 16 16 16
19 18 18 20 21 21 20 17 16 18 19 17 18 21 20 20 20 20 20 21 21 20 20 18 17 19 21 21 21 21 20 20 20 20 20 19 19 19 19 19 19 19 19 19 18 19 18 18 17 17 17 17 17 17 17 17 17 17 16 16 16 16 17 17 17 17 17 18 18 18 19 18 18 17 16 16 15 15 15 16 16 16 16 16 16 16
19 19 19 20 20 20 19 17 17 17 17 18 21 22 21 21 20 20 20 20 20 20 19 17 16 19 21 21 21 21 19 18 18 19 19 19 19 19 19 19 19 19 19 19 19 18 18 17 17 17 17 16 16 16 17 17 17 16 16 16 16 16 16 16 16 17 17 18 18 18 18 18 18 17 16 16 16 15 15 15 15 15 15 15 16 16
20 20 20 20 19 20 21 20 18 18 18 20 21 21 21 20 20 20 20 20 20 20 19 17 17 19 21 21 20 19 19 18 17 17 17 18 18 19 19 19 19 19 19 19 19 18 17 17 17 17 17 17 16 17 17 16 16 16 15 16 15 15 15 16 17 17 18 18 18 18 18 18 18 17 17 16 16 15 15 15 15 15 15 15 15 15
20 20 20 20 20 20 22 22 20 20 20 20 21 21 20 20 19 19 18 18 19 20 18 16 18 20 20 20 19 18 18 17 16 16 16 16 16 17 18 18 18 18 18 18 18 18 17 17 18 18 17 17 17 16 16 16 15 15 14 14 14 14 15 17 18 18 18 18 18 18 18 18 18 17 17 17 17 16 15 15 15 15 15 15 15 15
20 20 20 22 21 20 21 22 22 21 20 20 20 21 21 20 20 19 19 19 20 20 18 18 19 20 20 20 18 17 17 16 16 16 16 15 15 16 17 17 17 17 17 17 17 17 16 17 17 17 17 17 16 16 16 15 14 13 13 13 14 15 16 17 18 18 18 18 18 18 18 18 18 18 17 17 17 17 15 15 15 15 15 15 15 15
18 20 21 20 18 19 21 21 21 21 20 18 18 21 21 21 21 19 17 18 19 19 19 18 19 19 19 18 17 17 17 17 17 16 16 16 16 16 16 16 16 16 17 17 17 16 16 16 15 15 15 15 16 16 15 13 13 14 14 15 17 18 18 17 17 18 18 18 18 17 17 18 18 18 17 17 17 17 16 15 15 15 15 15 15 15
18 20 20 19 18 19 20 20 20 21 21 19 19 20 19 19 21 19 16 15 16 19 19 17 19 19 19 18 17 17 17 17 16 16 16 16 16 16 16 16 17 17 17 17 16 15 15 15 14 14 14 14 14 15 13 13 15 17 17 18 19 19 18 17 17 18 18 19 18 17 17 18 18 18 17 17 17 17 16 15 15 15 15 15 15 15
19 20 20 19 20 19 17 19 20 19 20 20 20 20 19 18 20 19 18 17 17 19 19 17 18 19 20 20 19 18 18 17 16 16 16 16 16 17 16 17 17 17 17 16 16 15 15 14 13 14 14 13 13 13 12 14 16 18 18 19 19 19 18 17 17 18 18 18 18 17 17 18 18 18 17 17 17 17 16 16 16 15 15 15 15 15
18 20 20 18 19 19 18 20 20 19 18 20 21 20 19 20 20 19 19 19 18 19 18 17 17 18 20 20 19 19 18 17 16 16 16 16 16 16 16 17 17 16 16 16 15 15 15 13 13 13 13 13 13 13 12 14 15 17 17 18 17 18 18 18 17 18 18 18 18 17 18 18 18 18 18 17 17 17 17 16 16 16 16 15 15 16
17 19 20 18 18 19 19 20 21 20 19 19 19 19 19 19 20 19 19 20 20 18 17 18 18 19 20 17 16 18 17 17 17 16 16 16 16 16 16 15 15 15 16 15 14 14 13 12 12 13 13 13 13 13 12 13 14 15 16 16 16 16 17 17 17 17 18 18 18 17 17 17 17 18 18 17 17 17 17 16 16 16 16 16 16 16
18 18 19 19 19 19 20 19 19 19 19 19 20 20 19 18 18 19 18 18 19 19 18 18 19 19 18 14 14 15 15 15 16 16 16 15 15 15 14 14 14 15 14 14 14 14 13 12 12 12 13 13 13 13 13 12 13 14 15 16 16 15 16 16 16 17 17 17 17 16 16 17 17 17 18 17 17 17 17 17 17 17 16 16 16 16
18 18 19 20 19 19 19 18 17 17 18 19 20 20 19 18 18 20 18 16 17 18 18 18 19 19 15 13 13 13 14 14 15 16 15 15 15 14 14 14 13 14 14 14 14 13 13 13 12 12 12 12 13 13 13 12 13 13 14 15 15 15 15 16 16 16 16 16 16 15 15 16 16 17 17 17 17 17 17 17 17 17 16 16 16 16
17 18 19 19 18 18 18 17 15 15 16 17 18 17 17 19 20 21 20 18 16 16 16 18 20 18 14 12 12 12 13 13 14 16 15 14 14 14 14 14 13 13 14 13 14 14 14 14 13 13 12 12 12 12 13 13 12 13 13 14 14 14 14 15 15 15 14 14 15 15 15 15 15 16 17 17 17 17 17 17 17 17 16 16 16 16
17 18 18 17 17 18 19 17 16 16 16 18 17 14 15 18 19 19 19 18 18 17 17 18 19 17 13 12 12 13 13 14 14 15 15 14 14 14 14 14 14 14 14 14 14 15 15 15 14 13 13 12 12 12 12 12 12 13 13 13 13 13 13 14 14 14 14 13 14 14 14 14 15 16 16 16 17 17 17 17 17 17 16 16 16 16
18 17 17 17 17 17 18 18 18 18 17 17 15 13 13 15 16 17 17 17 18 17 17 20 19 16 13 12 12 13 13 14 14 14 15 14 14 14 13 13 13 13 14 14 14 14 14 14 14 13 13 12 12 11 12 12 12 12 13 13 13 13 13 13 14 14 14 13 13 13 14 14 14 15 15 16 16 17 17 17 17 17 17 16 16 16
16 15 15 17 18 17 17 17 17 18 17 15 15 14 13 13 16 18 18 19 19 16 16 19 19 15 13 13 12 12 12 13 13 13 13 13 13 13 13 12 12 12 12 12 12 13 13 13 13 12 12 12 12 11 11 12 12 12 12 12 13 13 13 14 14 14 14 14 13 13 13 14 14 14 15 15 16 16 16 16 16 16 17 16 16 16
15 13 13 15 16 16 16 15 14 15 16 15 15 15 13 12 14 17 18 19 18 16 16 17 16 14 13 12 11 11 11 12 12 12 12 12 12 12 12 12 12 11 11 11 11 12 11 11 11 11 11 11 11 11 11 11 11 12 12 12 13 13 13 14 14 14 14 14 14 13 12 13 13 14 14 15 16 16 15 16 16 16 16 16 16 16
15 14 13 13 13 13 13 13 13 14 14 13 14 15 14 13 14 17 19 17 16 18 18 15 13 13 12 10 10 11 10 11 11 11 11 11 11 11 11 11 11 11 11 11 10 11 11 10 10 10 10 10 10 11 11 11 11 12 12 12 13 13 12 13 14 14 14 14 14 13 12 12 13 13 14 15 15 15 15 15 16 16 16 16 16 16
15 13 13 13 13 13 13 13 13 13 13 12 12 13 13 13 14 15 14 12 14 18 17 13 12 12 10 9 10 10 9 10 10 10 10 10 11 11 11 11 11 11 11 11 10 10 10 10 10 10 10 10 10 10 10 10 11 11 11 12 12 12 12 12 13 13 14 14 14 13 13 12 13 13 14 15 15 15 15 15 15 15 15 16 16 16
14 13 13 13 13 13 13 12 13 13 13 12 11 11 12 12 12 11 11 10 11 13 12 11 10 9 9 9 9 9 9 9 10 10 10 10 11 11 11 11 10 10 10 10 10 10 10 10 11 11 10 10 10 10 10 10 10 11 11 11 11 12 12 12 13 13 13 13 13 13 13 13 13 13 14 14 14 15 15 14 15 15 15 15 15 15
15 13 13 13 13 13 12 12 13 13 13 12 12 11 12 12 12 11 10 10 11 11 10 10 10 9 9 9 9 9 10 10 10 10 10 10 11 11 10 10 10 10 10 10 10 10 11 11 11 11 10 10 10 10 10 10 10 10 11 11 12 12 12 12 12 12 13 13 13 13 13 13 13 13 13 14 14 14 14 14 14 14 14 14 14 14
15 13 12 13 14 13 12 12 12 13 13 13 13 11 11 12 12 11 9 9 11 11 11 12 11 9 9 9 9 9 10 10 9 9 9 10 10 10 10 10 10 10 10 10 11 11 11 11 11 11 11 10 10 10 10 10 10 10 10 11 12 12 12 12 12 12 12 12 13 13 13 13 13 13 13 13 13 13 14 14 13 14 14 14 13 13
14 13 12 13 14 13 11 11 12 13 14 14 12 10 9 9 9 9 8 8 8 10 12 13 11 9 9 9 9 9 9 9 9 8 9 9 9 9 9 9 10 10 9 10 10 10 10 11 11 11 10 10 10 10 10 10 11 11 11 11 12 12 12 12 12 12 12 12 12 12 12 13 13 13 13 13 13 13 13 13 13 13 13 12 12 12
13 13 13 13 14 12 11 11 13 13 13 12 10 7 8 9 9 9 8 7 7 8 10 10 9 8 9 9 9 9 8 8 8 8 8 8 8 9 8 8 9 9 9 9 9 9 10 10 10 10 10 10 10 11 11 11 12 12 12 12 12 12 12 12 13 13 13 13 13 13 13 13 13 13 13 13 13 13 13 13 13 13 13 12 11 12
13 13 12 12 12 11 10 12 13 12 11 10 8 7 8 9 9 9 8 8 8 8 9 9 8 8 8 8 8 8 8 8 8 8 7 7 7 7 7 7 7 7 8 8 8 9 9 8 9 9 9 9 10 11 11 11 12 12 12 12 12 12 12 12 13 13 13 13 13 13 13 13 13 13 13 13 13 13 13 13 13 13 13 12 12 12
14 13 11 11 11 11 11 12 12 10 9 8 8 8 9 9 10 10 9 8 8 8 9 9 8 8 8 8 8 8 8 8 8 8 7 7 7 7 7 6 6 7 7 6 7 8 7 7 8 8 8 9 9 10 10 10 11 11 12 12 12 12 12 12 12 12 12 13 13 13 14 14 14 14 13 13 13 13 13 13 13 13 13 12 12 12
13 14 12 11 10 10 11 11 9 9 8 8 8 8 8 9 9 9 9 8 7 7 8 8 8 8 8 8 8 7 8 9 9 8 8 7 7 7 7 7 7 7 7 7 7 7 7 7 7 7 8 8 8 8 9 9 9 10 11 11 12 12 12 12 12 12 12 12 12 13 13 14 14 14 14 13 13 13 13 14 14 14 13 13 13 13
11 12 13 12 9 9 10 10 9 10 10 10 9 8 8 7 7 8 9 9 7 6 7 8 8 8 8 8 8 7 8 10 10 8 8 7 7 7 7 7 7 7 7 7 6 6 6 6 7 7 7 8 8 8 8 8 9 9 10 10 11 11 12 12 12 12 12 12 12 12 13 13 13 13 14 14 13 13 13 14 14 14 14 14 14 13
11 11 12 12 9 8 11 12 10 10 10 8 8 8 8 7 6 7 10 10 7 6 6 8 8 7 7 8 7 8 9 11 10 8 7 7 7 7 7 7 7 6 6 6 6 6 6 6 6 6 7 7 7 7 7 8 8 8 9 9 9 10 11 11 11 11 12 12 12 12 12 12 12 13 13 14 14 14 14 14 14 14 14 14 14 14
11 10 11 11 10 9 10 11 9 8 8 7 7 8 7 6 6 9 11 10 7 6 6 8 8 7 7 7 8 9 10 10 9 8 6 6 6 6 6 6 6 5 6 5 5 5 5 5 5 5 5 5 5 6 6 7 7 7 8 8 8 9 10 10 10 10 10 11 12 12 12 12 12 12 13 13 14 14 14 14 14 14 14 14 14 14
9 8 8 10 10 9 10 10 8 7 7 7 7 7 6 6 8 11 11 8 7 6 6 7 7 7 7 8 9 9 8 7 7 6 5 5 6 5 5 5 5 5 5 4 4 4 4 4 4 4 4 4 4 5 5 5 6 6 7 7 7 8 8 8 9 9 10 10 11 11 12 12 12 12 12 12 13 13 14 14 14 14 14 14 14 14
8 8 8 8 8 7 8 9 8 8 7 6 6 7 7 8 10 10 8 6 7 7 6 6 7 6 7 7 7 7 7 6 6 5 5 5 5 4 4 4 4 4 4 3 3 3 3 4 4 4 4 4 4 4 4 4 5 5 5 6 6 7 7 7 8 8 9 9 10 10 11 12 12 12 12 12 12 13 13 13 14 13 13 13 13 13
8 8 8 7 6 6 7 8 9 8 6 5 6 7 8 8 9 7 6 6 6 6 6 6 6 6 6 6 6 6 6 5 5 4 4 4 4 4 4 3 3 3 3 3 3 3 3 3 3 3 3 3 3 3 3 3 4 4 5 5 6 6 6 6 7 7 8 8 9 9 10 11 11 12 12 12 12 12 12 13 13 13 13 13 13 13
8 8 8 7 6 7 8 8 7 7 6 5 7 8 8 7 7 7 7 7 6 6 7 6 6 5 6 6 5 5 5 4 4 3 3 3 3 3 3 3 3 2 2 2 2 2 2 2 2 2 2 2 2 2 2 2 3 3 4 4 5 5 5 5 6 6 6 7 8 9 9 10 10 11 11 12 12 12 12 12 12 12 12 12 13 12
7 7 7 6 5 6 7 6 5 5 5 6 7 7 7 6 6 7 7 7 6 6 6 6 5 4 4 5 5 5 4 3 3 2 2 2 3 3 3 2 2 2 2 2 2 1 1 1 1 1 1 1 1 1 1 2 2 2 3 3 4 4 4 4 4 4 5 6 6 7 8 9 9 10 10 11 11 11 11 11 11 12 12 12 12 12
6 6 6 6 5 5 5 5 5 5 5 5 5 5 5 6 6 6 6 6 5 5 5 5 4 4 3 3 4 3 3 2 1 2 2 2 2 2 2 2 1 1 1 1 1 1 1 1 1 1 1 1 1 1 1 1 1 1 2 2 2 2 3 3 3 4 4 5 5 6 7 8 8 9 9 10 10 10 11 11 11 11 12 12 12 12
6 6 6 6 6 6 6 5 5 5 5 5 5 5 5 5 5 5 5 5 4 4 4 4 3 3 3 3 3 2 2 1 1 1 1 1 2 2 2 1 1 1 0 1 0 0 0 1 1 1 1 1 1 1 1 1 1 1 1 1 1 1 2 2 2 3 4 4 5 6 6 7 7 8 9 9 9 10 11 11 10 11 11 11 11 12
7 7 6 6 6 6 6 6 5 5 5 5 5 5 6 5 5 4 4 4 4 4 3 3 3 3 3 3 2 2 2 2 1 1 1 1 2 2 1 1 1 0 0 0 0 0 1 1 1 1 1 1 1 1 1 1 1 1 1 1 1 1 1 1 2 2 3 4 4 5 5 6 7 7 8 8 9 9 9 9 9 9 10 10 11 11
6 7 6 6 6 5 5 5 5 5 6 6 5 5 5 5 4 4 3 4 4 3 3 3 3 3 3 2 2 2 2 2 2 1 1 1 2 1 1 0 0 0 0 0 0 0 0 1 1 1 1 2 2 2 1 1 1 1 1 1 1 1 1 1 1 1 2 3 3 4 5 5 6 7 7 7 8 8 8 8 8 8 9 10 10 10
6 7 6 6 6 6 6 6 6 6 7 7 6 5 5 4 4 4 4 4 4 3 3 3 2 2 2 2 2 2 2 2 2 1 1 1 1 1 1 0 0 0 0 0 0 0 0 1 1 1 1 1 1 1 1 1 1 2 2 1 1 1 1 1 1 1 1 2 3 4 4 5 6 6 7 7 7 8 8 8 7 7 8 9 9 10
6 7 6 7 7 7 7 7 6 6 7 6 6 5 4 4 4 4 4 4 3 3 3 3 3 2 2 2 2 2 1 1 1 1 1 2 1 1 1 0 0 0 0 -0 -0 0 0 1 1 1 1 1 1 1 1 1 1 1 1 1 1 1 1 1 1 1 1 1 2 3 3 4 5 6 6 6 7 7 8 7 6 6 7 7 8 9
Height
764 767 770 768 767 764 764 766 766 769 770 769 772 774 775 775 769 762 762 764 763 762 761 762 761 756 759 764 762 761 763 767 768 769 771 771 772 773 774 775 776 778 779 781 782 784 786 788 790 791 792 793 794 795 796 797 800 801 803 805 807 809 811 814 816 818 820 821 822 822 824 824 825 826 826 826 827 827 828 828 829 829 830 831 831 832
764 769 769 762 762 763 766 770 770 771 773 772 773 773 775 776 767 759 763 766 764 762 761 766 766 761 765 766 762 762 764 767 767 768 770 770 772 772 773 775 776 777 779 781 782 784 785 787 788 790 791 792 793 794 795 797 799 801 803 806 807 809 811 813 815 817 818 819 820 821 822 824 825 825 826 827 827 827 828 828 829 829 830 831 831 832
769 769 762 759 766 770 772 775 771 770 774 773 775 774 771 772 767 761 764 766 766 763 761 767 767 765 771 769 765 764 764 766 765 766 768 768 771 772 773 775 776 778 779 781 782 783 784 785 787 789 790 791 792 793 795 797 799 801 803 805 807 808 810 812 814 815 816 817 819 820 822 823 824 825 826 827 828 828 829 829 830 830 831 831 832 832
770 764 759 763 768 768 772 777 772 771 774 773 773 771 767 769 768 761 762 766 768 767 764 764 765 768 772 771 770 769 767 767 766 767 767 767 769 771 772 774 775 777 779 780 781 782 783 784 786 787 788 790 791 792 794 795 798 800 802 804 805 807 809 810 812 814 815 816 819 821 822 824 825 826 827 828 829 830 830 831 831 831 832 832 832 833
762 760 764 768 767 764 769 776 774 770 771 773 773 768 763 765 764 759 762 765 765 767 765 762 764 769 772 774 775 771 769 769 769 770 770 769 769 769 771 773 774 775 777 779 780 781 783 783 785 786 787 788 789 791 792 795 797 799 801 802 804 806 807 809 811 812 814 816 819 821 823 824 825 826 828 829 830 831 832 832 832 832 833 833 833 833
758 761 765 765 766 766 766 771 772 768 768 770 768 763 760 759 759 760 763 764 763 765 767 767 768 770 772 774 774 772 771 772 772 773 771 770 770 769 771 773 773 774 775 777 778 779 781 782 784 785 786 787 788 789 792 794 796 798 800 801 802 805 806 808 810 811 814 816 818 820 822 824 825 827 828 830 831 832 833 833 833 833 833 833 834 834
758 762 764 761 765 767 766 769 769 766 767 766 759 757 760 760 760 762 761 760 763 767 772 773 769 770 770 769 771 773 773 772 772 772 770 769 769 768 770 771 772 774 775 776 777 778 779 781 783 784 785 786 787 789 791 793 795 796 798 799 801 803 805 807 809 811 814 816 818 819 820 822 824 825 827 829 830 831 832 833 833 833 833 834 834 834
757 762 765 763 764 768 769 766 763 763 762 759 756 757 761 761 760 762 759 759 765 769 773 773 768 768 769 769 773 776 774 772 772 770 769 768 767 766 766 768 770 772 773 775 776 777 778 780 781 782 783 785 787 789 791 792 793 794 796 797 799 801 803 806 808 811 813 815 817 818 820 821 823 824 826 828 829 831 832 832 832 833 833 834 834 835
756 758 759 759 763 766 760 755 757 759 755 755 760 762 762 762 761 761 759 761 771 771 767 768 769 769 770 769 774 776 773 771 769 766 765 765 766 765 764 765 767 768 770 772 774 775 776 778 780 782 783 784 787 789 790 790 791 793 794 796 798 801 803 806 808 811 813 815 816 818 819 821 822 824 826 827 829 830 831 832 832 833 833 834 835 835
754 753 752 754 757 755 750 752 756 754 752 758 763 762 762 765 765 764 762 762 770 772 768 772 776 773 770 767 767 770 767 765 764 762 762 763 763 763 763 763 764 766 768 769 771 773 775 777 779 781 783 784 786 787 788 789 790 792 794 796 798 801 803 806 808 810 813 815 816 818 818 820 822 824 825 827 829 830 832 833 833 833 833 834 834 835
752 752 752 751 749 747 750 759 762 757 757 761 759 756 759 763 763 764 767 764 769 775 775 782 785 777 773 767 763 766 766 767 767 763 762 763 762 762 762 762 764 765 767 768 770 773 775 777 779 781 783 783 784 785 787 788 789 791 793 796 798 800 803 805 808 810 812 814 816 817 817 818 820 822 824 826 828 830 831 832 833 834 834 834 834 835
753 753 751 746 745 747 750 758 763 761 761 759 754 754 760 765 765 767 770 770 776 781 780 788 790 779 773 767 762 764 767 771 771 767 764 763 762 761 761 761 762 764 765 767 769 772 774 777 779 781 782 783 783 784 786 787 788 790 793 796 798 801 803 806 808 810 812 813 815 816 817 817 818 820 822 824 827 829 830 832 833 834 835 834 834 835
753 749 748 745 744 744 745 754 763 762 760 758 754 758 766 774 778 779 779 779 780 779 783 790 788 778 771 766 766 768 767 769 772 770 768 766 763 762 761 761 762 763 765 766 768 771 773 775 778 780 781 782 783 783 784 786 788 791 794 796 798 801 804 806 808 809 810 812 813 815 816 817 818 820 821 823 825 827 829 830 831 833 835 835 835 836
753 748 747 745 743 740 740 749 759 761 759 757 755 759 767 779 791 794 794 796 788 779 784 790 784 778 773 768 769 771 769 769 770 770 769 768 767 765 763 761 762 765 766 768 770 772 774 776 778 780 782 782 782 782 784 787 790 793 795 797 800 804 806 807 807 808 809 811 812 813 814 816 818 819 820 821 823 826 829 830 829 832 835 836 836 836
760 756 746 741 742 740 738 740 744 750 755 758 756 755 761 769 780 787 786 786 783 780 785 787 781 777 773 770 770 771 771 770 769 769 769 768 767 766 764 763 765 767 769 770 772 773 774 776 779 781 783 783 783 783 785 789 793 797 800 802 805 807 807 807 808 809 810 811 812 812 813 815 816 818 820 820 820 823 827 830 829 831 834 836 836 837
766 759 742 741 745 741 739 737 737 743 753 763 760 756 759 757 760 780 790 786 782 782 784 785 781 777 773 773 773 773 772 771 770 770 769 768 768 766 766 767 768 770 771 772 774 775 774 774 778 782 785 786 785 786 789 792 796 800 802 804 805 805 804 806 807 808 809 810 810 811 813 814 815 817 819 820 820 821 825 829 829 830 833 835 836 837
764 755 741 743 745 741 742 740 739 742 749 760 761 757 759 755 755 776 795 798 792 784 785 789 783 776 774 774 774 774 774 774 774 774 772 771 770 768 769 769 769 770 772 774 776 778 778 777 776 779 787 791 792 793 793 793 795 796 797 797 799 800 801 804 806 806 808 808 809 811 811 812 814 816 818 820 820 820 824 828 829 830 832 834 836 836
754 750 743 744 743 742 744 742 741 742 744 753 756 752 756 760 760 767 781 794 794 784 786 792 788 780 774 772 772 773 775 776 778 777 775 774 772 770 771 770 769 770 772 775 777 778 783 783 776 776 785 792 795 797 796 794 794 793 792 793 794 797 800 802 804 805 807 808 809 810 810 811 813 815 818 820 821 821 823 826 828 829 832 833 834 835
751 751 747 746 746 744 742 741 744 746 745 745 745 745 752 760 763 768 777 784 787 789 791 792 795 787 773 770 772 771 774 776 777 778 777 776 774 774 774 773 772 772 772 773 775 777 783 788 783 780 786 791 793 797 796 795 795 793 792 793 794 797 799 800 802 804 806 807 808 809 810 811 813 815 817 819 821 822 823 825 827 828 830 832 833 835
750 753 751 748 747 745 742 743 747 749 748 747 746 749 753 757 760 766 771 769 773 789 795 791 791 781 772 779 782 775 776 777 776 778 779 778 777 777 778 778 777 776 776 775 776 778 783 788 787 784 787 789 791 794 795 794 794 793 793 794 795 798 799 800 803 804 805 806 807 808 809 811 813 815 817 819 821 822 823 825 826 827 829 831 832 834
748 754 754 748 745 746 747 748 750 750 750 750 751 754 757 762 764 764 771 773 770 779 789 789 786 777 777 790 790 781 780 780 778 778 780 781 780 781 782 782 781 780 780 780 780 781 783 787 789 786 786 789 791 793 795 794 794 793 793 793 795 798 800 801 803 803 804 805 805 807 809 811 813 815 817 819 821 822 823 825 826 827 829 830 832 833
746 751 753 751 749 749 751 752 754 753 752 750 749 750 754 760 762 762 773 782 776 774 781 782 778 777 785 793 791 787 784 782 780 778 780 783 783 785 786 785 786 784 783 784 784 784 785 787 789 788 788 789 791 793 795 795 795 794 793 794 796 799 800 801 802 803 804 804 805 807 809 811 813 815 817 818 820 822 823 824 825 827 828 830 831 833
745 748 751 755 755 753 753 754 756 757 755 753 751 755 757 753 752 755 764 774 778 782 783 776 772 779 791 794 791 789 786 783 781 778 781 785 785 787 788 788 789 788 786 787 786 785 787 788 788 789 789 790 791 793 795 796 796 795 795 796 798 800 802 802 803 803 804 805 806 808 810 812 813 815 816 818 819 821 822 824 825 826 828 830 831 832
745 748 755 761 759 752 749 751 754 755 754 753 756 765 765 756 752 755 759 763 771 779 779 773 774 783 792 795 792 789 786 784 782 780 782 785 785 786 788 790 790 788 787 787 786 786 788 788 789 790 791 793 794 796 796 796 797 797 797 798 799 801 803 803 803 804 804 806 807 808 810 812 813 815 816 817 819 820 822 823 825 826 828 829 830 831
746 752 756 762 766 762 757 756 754 752 753 759 765 771 772 767 760 759 763 764 765 775 775 766 771 784 792 795 793 789 787 785 785 785 783 785 787 787 789 792 792 789 789 788 788 789 789 790 792 793 794 796 797 797 798 797 797 797 797 798 799 801 802 803 804 804 805 806 807 809 810 812 813 815 816 817 818 820 821 822 824 825 826 828 829 830
754 765 762 758 763 767 766 764 761 758 759 765 769 771 773 773 763 757 762 762 763 776 777 764 770 786 792 794 794 793 791 789 789 789 788 789 791 791 792 795 794 793 793 792 792 792 793 794 796 796 797 798 798 799 799 798 797 797 798 799 800 800 801 802 803 804 805 806 807 809 810 811 813 814 815 816 817 819 820 821 823 824 825 826 828 829
759 772 772 764 761 763 766 769 770 768 766 768 770 770 775 779 771 759 757 760 764 773 776 771 777 787 793 799 800 798 797 795 794 794 793 794 794 794 796 797 796 796 796 796 796 796 797 798 799 801 801 801 801 801 801 799 798 798 799 800 800 801 801 801 802 803 804 805 806 808 809 811 812 813 814 815 816 818 819 820 821 823 824 825 827 828
761 771 775 774 773 773 774 775 775 771 773 777 777 773 774 778 773 760 757 765 768 765 769 780 785 788 799 807 805 803 803 801 800 799 798 798 798 798 798 798 797 798 798 798 799 799 800 801 801 803 803 804 805 804 802 801 800 801 801 801 802 802 802 803 803 803 804 805 806 807 809 810 811 812 813 814 816 817 818 819 820 821 823 824 826 827
764 774 775 775 777 777 777 777 775 773 777 783 783 780 778 776 774 771 775 783 777 764 770 786 792 797 807 811 808 808 808 805 804 803 802 801 800 799 799 799 799 800 800 801 802 802 803 803 803 804 805 805 806 805 804 803 803 803 803 803 803 803 804 804 804 805 805 806 806 807 809 809 810 811 813 814 815 816 816 818 819 820 821 823 824 826
760 773 777 775 776 779 779 780 778 777 779 783 787 788 785 783 785 787 793 797 788 783 788 794 800 809 813 812 810 810 810 808 807 805 804 803 802 801 801 802 802 803 803 804 805 805 805 805 806 806 806 807 807 806 806 806 806 805 805 805 805 805 805 805 805 806 806 807 807 807 808 809 810 811 812 813 814 815 816 817 818 819 820 821 823 824
754 770 775 772 777 782 782 783 781 778 780 784 787 789 786 784 786 789 796 797 791 795 802 799 802 814 815 813 813 811 809 809 807 807 807 807 806 804 804 805 805 806 806 806 806 806 806 806 807 807 807 808 809 809 809 808 808 807 807 807 807 806 806 806 806 807 807 807 808 808 808 809 809 810 811 812 813 814 815 816 817 818 819 820 821 823
753 770 777 773 775 780 783 786 784 780 781 781 783 790 791 789 789 793 801 802 794 795 798 794 799 813 816 814 814 811 809 809 809 811 811 810 809 807 807 808 808 808 809 808 808 807 807 807 807 808 809 809 810 810 810 810 810 809 809 809 808 807 807 807 807 807 807 807 808 808 809 810 810 811 811 812 813 813 814 815 816 817 818 819 820 821
758 767 773 772 772 779 786 787 783 781 781 779 785 799 804 801 801 803 807 810 807 801 793 789 800 814 818 815 814 813 812 812 814 815 815 813 813 811 811 811 811 812 812 811 811 810 810 810 810 810 810 810 810 810 811 811 811 811 811 811 810 809 809 808 808 808 808 808 808 809 809 810 810 811 811 812 813 813 814 814 815 816 817 818 820 822
761 761 767 769 771 782 791 786 784 787 786 786 797 809 807 803 803 805 810 814 813 808 801 800 809 817 817 816 815 816 817 818 819 820 819 818 817 816 816 817 816 816 816 816 816 815 814 814 813 813 813 812 813 812 812 812 812 812 812 812 812 811 810 810 810 810 810 810 810 810 810 810 810 810 811 812 812 813 813 813 814 815 816 818 820 821
762 763 771 774 776 787 794 787 786 792 792 796 806 808 804 803 802 805 812 815 812 811 809 809 814 817 817 819 819 819 820 821 821 821 822 821 821 821 822 823 823 822 821 820 820 818 817 817 815 816 816 816 816 815 814 814 814 813 813 813 813 812 812 811 811 811 811 811 811 811 810 810 810 810 810 811 811 812 812 812 813 813 814 816 818 818
760 763 774 781 784 789 789 783 787 798 804 808 809 805 803 804 801 800 808 815 816 815 813 812 816 819 819 820 820 820 822 821 821 823 824 824 824 824 825 827 828 826 825 825 824 822 821 820 819 819 819 818 818 817 816 816 815 815 814 813 813 813 812 812 812 812 812 812 811 811 811 811 810 810 810 810 810 811 811 811 811 812 813 814 815 816
763 762 769 779 789 792 788 791 802 808 808 808 807 806 806 805 803 802 808 818 822 820 817 816 818 820 820 821 822 823 822 819 820 823 825 826 827 827 827 828 829 828 828 828 827 825 825 824 823 822 821 820 820 819 818 817 816 816 815 815 814 813 813 812 812 811 812 812 812 812 811 811 810 810 809 810 810 810 810 810 810 811 811 812 813 814
767 766 764 772 792 800 792 797 807 802 794 798 805 808 808 809 810 807 807 816 823 823 821 819 818 820 821 820 822 824 822 818 819 825 828 828 828 828 828 829 829 829 829 829 828 828 827 825 825 824 823 822 821 820 819 818 817 816 816 815 815 814 813 813 812 811 811 811 811 811 811 811 811 809 808 809 809 809 809 809 809 809 810 811 812 813
770 773 769 773 794 801 786 782 792 794 795 804 809 808 807 810 813 808 803 809 821 825 823 820 820 822 822 821 822 823 818 815 819 826 829 830 830 829 829 829 829 829 830 829 829 829 827 827 825 824 823 822 822 821 820 819 818 817 817 816 815 815 814 814 813 812 812 811 811 811 811 810 810 809 809 809 809 809 808 809 809 809 810 811 812 813
775 779 777 777 790 798 788 784 795 804 809 812 811 808 808 811 812 804 796 804 819 825 823 821 821 822 823 823 822 820 818 817 821 828 831 832 831 831 831 831 830 830 830 829 829 828 827 826 825 824 824 823 823 822 821 820 819 818 818 817 816 815 815 814 813 813 812 811 810 810 809 809 809 809 809 809 809 808 808 808 809 810 810 811 812 813
787 792 792 789 792 796 793 793 802 810 812 812 811 810 811 811 807 798 797 809 821 824 823 823 823 823 824 822 820 821 824 826 827 831 833 832 832 832 832 832 831 831 830 829 828 827 826 825 825 824 824 823 823 822 820 820 819 818 818 817 816 815 815 813 813 812 810 809 809 809 808 808 807 807 807 807 808 807 808 808 808 809 810 810 811 812
794 798 800 800 803 805 802 799 802 807 812 814 813 811 810 806 801 802 811 820 822 822 824 825 825 825 826 825 824 826 829 830 831 832 833 833 833 833 833 832 831 830 830 829 828 827 825 824 824 823 823 822 822 821 820 819 818 817 817 816 815 815 813 812 811 810 809 808 807 807 806 806 806 805 805 806 806 806 807 807 807 808 809 809 810 810
798 799 802 807 811 811 807 803 799 802 811 816 813 809 808 807 807 813 821 823 822 823 825 826 826 827 827 827 829 830 830 832 833 833 833 833 833 833 833 832 831 830 829 828 827 826 825 824 823 822 822 821 820 820 819 818 817 816 815 814 813 813 812 811 810 809 807 806 805 805 804 804 804 804 804 804 805 805 805 806 806 806 807 807 808 809
800 800 802 808 811 805 801 804 807 810 815 816 811 809 811 813 815 818 819 820 823 825 824 825 828 829 828 828 830 830 831 832 833 833 833 833 833 833 833 832 832 831 830 829 828 827 826 824 823 822 820 820 819 818 818 817 816 815 813 812 811 810 810 809 808 807 806 805 804 803 803 802 802 802 802 802 803 803 804 804 804 804 805 806 806 807
805 805 802 808 815 813 809 813 818 819 819 816 813 814 816 817 819 819 818 820 824 824 824 826 828 829 829 829 829 830 831 833 833 834 834 833 833 833 833 832 832 831 830 829 828 827 826 825 823 822 820 819 818 817 816 816 814 813 811 810 809 808 807 807 806 805 804 804 803 802 801 801 800 800 800 800 800 801 802 802 803 803 803 804 804 805
809 810 807 810 817 819 818 820 822 821 821 820 819 819 820 820 821 821 821 823 825 825 826 827 828 830 831 830 830 832 833 834 834 834 834 833 833 832 832 832 831 830 830 829 828 827 826 824 823 821 819 818 817 816 815 814 813 811 809 808 807 806 805 804 803 802 802 801 801 800 799 799 798 798 798 798 798 799 800 801 802 802 802 802 802 802
809 809 810 812 815 817 819 822 823 822 823 823 822 822 823 823 823 823 823 825 826 827 827 828 828 830 830 830 831 832 833 834 834 833 833 833 832 831 831 830 830 829 828 828 826 825 824 822 821 819 818 817 815 814 813 812 810 809 807 806 805 804 803 802 800 799 798 798 798 797 797 796 796 796 796 796 796 796 797 798 799 800 801 802 801 801
808 808 811 815 817 818 818 821 823 823 824 824 823 823 823 823 825 825 825 826 827 828 828 829 829 830 830 831 832 832 832 833 833 833 833 832 831 831 831 830 829 829 827 826 826 824 823 821 819 818 816 815 814 812 811 809 808 807 805 804 803 802 800 798 797 796 794 794 794 794 793 793 793 793 793 793 793 793 794 795 795 797 799 800 800 800
810 809 812 816 818 820 821 822 823 823 822 822 823 823 824 824 825 827 827 827 828 829 830 831 831 831 832 832 832 833 832 832 832 833 832 831 830 830 830 829 829 827 826 826 824 823 822 820 818 816 815 813 812 811 809 807 806 804 803 802 800 799 798 796 794 792 791 790 789 789 789 789 790 790 790 790 790 791 791 792 792 793 795 797 798 799
810 810 815 816 817 818 818 817 819 820 818 819 821 823 824 825 826 827 828 829 829 830 831 831 832 833 833 833 833 833 832 832 832 832 831 831 830 829 829 828 827 825 825 824 822 821 820 818 817 816 813 812 810 809 807 805 803 802 800 799 798 797 795 793 792 790 787 786 786 785 785 785 785 786 786 787 787 788 788 788 789 790 791 793 794 795
810 811 813 812 812 813 813 813 817 817 817 819 821 823 825 826 826 827 828 829 830 831 831 832 832 832 833 833 833 833 833 832 832 832 831 830 829 828 828 827 826 824 823 822 821 819 818 816 815 814 811 809 808 806 805 803 801 799 797 795 794 793 792 790 789 787 785 784 782 781 781 781 781 782 782 783 784 784 784 785 786 787 788 789 790 791
Wind_Speed
1 2 2 3 4 4 5 3 2 3 3 4 3 2 2 2 4 4 2 1 1 3 4 5 8 8 5 7 10 11 11 11 10 10 9 8 8 9 10 11 11 10 8 9 11 11 11 13 16 17 16 18 18 15 16 15 15 19 17 14 16 16 16 17 17 16 15 13 11 8 6 5 3 3 3 3 2 2 2 3 3 2 3 4 4 3
1 3 3 5 5 3 3 4 4 4 2 2 2 2 2 3 4 3 0 2 2 3 1 1 5 5 1 3 7 10 11 11 11 10 9 9 8 8 10 10 10 8 5 6 8 9 10 12 15 17 16 16 17 14 15 17 19 20 17 15 17 18 17 17 17 17 14 12 10 8 7 7 7 7 6 6 5 4 4 4 4 4 4 6 5 4
1 4 5 4 4 5 4 4 4 3 2 2 1 1 2 2 4 2 1 2 1 3 2 1 3 1 3 1 4 6 9 8 8 9 8 9 9 8 9 9 9 8 5 6 7 8 10 12 14 16 15 16 17 16 16 18 19 20 18 16 17 18 16 15 16 15 12 11 10 8 9 11 10 10 10 9 8 7 7 6 6 6 6 6 5 5
2 3 4 4 6 6 4 3 4 3 2 2 2 2 2 1 2 1 2 1 1 1 1 4 3 2 3 3 2 1 3 3 3 6 6 7 8 9 8 8 9 10 8 7 7 7 9 11 13 15 15 16 17 18 18 18 18 19 18 17 17 17 15 14 15 14 12 11 11 10 12 12 12 12 11 11 10 9 9 8 7 6 6 6 5 5
4 1 2 6 6 5 4 3 5 4 2 2 3 5 3 2 3 3 1 1 0 1 2 4 3 1 2 4 4 1 2 3 3 4 5 6 8 9 8 8 10 10 9 9 8 7 9 11 13 14 16 17 17 19 19 18 18 18 18 17 17 17 16 15 15 15 14 14 15 16 16 14 13 13 12 11 10 9 8 7 6 5 5 6 5 5
4 1 5 5 3 4 4 3 5 5 3 2 5 8 6 3 3 3 1 0 2 2 2 1 2 3 2 3 7 3 2 3 3 4 7 7 9 10 9 10 10 9 9 8 7 7 8 10 11 12 15 16 16 18 20 18 17 16 17 18 18 17 16 16 17 16 15 17 18 19 18 15 13 12 10 10 10 9 8 6 4 4 4 5 5 5
2 3 3 3 3 4 4 3 5 6 4 2 4 8 7 3 2 2 2 1 2 1 2 2 1 2 2 2 4 4 7 8 4 6 9 8 10 12 11 11 10 9 9 7 7 8 9 10 11 12 13 13 13 16 18 17 16 17 18 19 19 18 18 18 19 18 17 18 18 17 16 15 14 13 12 11 10 9 7 5 5 5 6 5 5 5
3 4 2 2 3 4 4 3 6 8 6 2 2 6 8 5 4 3 2 1 0 1 1 1 1 2 3 1 0 2 7 9 8 9 10 9 10 12 11 12 12 12 11 9 8 9 9 10 11 11 12 13 12 14 16 17 17 17 18 20 20 19 19 19 20 20 19 19 18 16 14 14 13 13 14 12 10 9 7 6 7 7 7 6 5 5
3 4 4 5 3 2 4 3 8 11 4 0 2 5 6 4 3 2 2 2 1 1 3 1 2 1 3 1 1 2 6 8 10 11 11 10 11 11 10 11 12 12 12 11 10 9 10 10 11 10 11 14 14 13 15 16 17 18 18 19 20 20 20 20 21 20 19 17 16 15 15 14 13 12 13 13 11 9 8 7 8 7 7 6 5 5
1 3 4 5 2 3 3 0 7 10 3 2 5 6 5 4 3 2 1 2 1 2 3 2 4 1 3 2 1 2 3 4 5 6 8 8 9 11 10 9 11 10 10 10 9 9 10 10 11 10 10 12 14 14 15 16 16 16 16 17 19 19 20 21 21 20 19 16 14 14 14 13 13 13 13 13 11 10 9 8 8 7 6 6 5 4
1 1 1 3 2 2 3 3 2 2 2 5 5 5 5 3 2 2 2 1 1 3 1 2 4 2 3 2 1 2 1 1 3 3 3 4 7 9 9 8 9 9 8 9 8 8 9 10 10 10 10 11 13 13 13 14 15 15 16 17 18 18 19 21 21 19 18 15 14 14 12 11 13 14 14 14 13 12 10 9 8 7 6 5 5 4
2 1 1 2 1 3 5 5 3 2 3 3 2 3 4 1 1 1 1 0 3 3 2 2 3 2 3 2 1 1 1 2 4 5 6 5 5 6 7 8 8 8 8 8 8 8 8 8 9 10 10 11 13 14 13 14 16 16 16 17 18 17 18 19 19 17 16 16 15 14 11 11 12 13 13 13 13 12 10 9 8 6 5 5 5 5
2 3 2 2 1 3 3 4 3 1 0 1 2 3 3 1 1 2 1 1 3 1 2 1 1 1 2 1 1 4 5 5 4 6 8 9 8 5 5 7 7 7 8 8 7 7 8 8 9 11 11 12 14 15 16 16 16 16 16 17 17 16 16 17 17 16 16 17 16 14 12 12 12 12 12 13 13 12 10 9 9 6 5 5 6 6
2 2 1 1 2 3 5 4 3 3 3 4 4 4 4 3 2 3 2 1 2 1 2 1 1 1 1 0 2 5 7 7 6 6 7 8 8 5 3 4 5 5 5 5 4 4 4 5 7 9 9 11 13 15 17 15 13 14 15 16 17 14 12 15 17 17 18 18 17 16 14 13 12 12 12 12 12 12 10 9 10 8 5 6 7 7
3 2 2 3 1 2 7 6 3 4 4 3 1 2 4 4 3 3 3 3 3 1 2 1 2 2 3 1 3 4 5 6 6 6 5 3 2 1 3 5 6 6 5 5 6 6 5 4 3 5 7 8 11 13 13 11 16 21 23 22 16 7 10 15 17 18 18 17 17 17 17 15 14 12 12 13 13 11 10 8 10 10 7 7 8 7
1 3 2 1 1 2 4 2 3 4 4 1 1 2 2 3 3 1 0 1 1 1 1 1 1 1 1 0 2 3 3 5 6 6 5 5 5 6 7 8 8 7 7 7 6 6 7 8 7 5 3 3 8 8 10 22 29 26 20 14 7 13 17 17 18 19 18 18 19 18 18 16 15 13 13 14 13 13 11 8 8 9 7 8 8 8
1 2 1 1 0 1 2 1 2 1 2 3 2 4 1 0 3 3 2 2 1 2 2 1 1 1 1 2 2 2 2 4 5 5 5 5 6 8 8 8 9 9 8 7 7 6 5 6 12 11 5 8 11 1 20 28 20 13 13 14 16 21 22 20 21 21 21 21 20 18 18 17 16 14 14 15 13 14 13 9 8 7 7 8 8 8
2 1 1 1 2 1 2 2 4 3 1 3 3 5 4 2 2 2 2 2 0 3 2 1 0 1 2 2 3 3 4 5 5 4 5 5 6 8 8 8 9 10 10 9 9 9 8 6 9 13 4 13 11 5 23 20 11 14 18 20 22 24 24 24 23 23 23 22 19 17 17 18 17 14 14 15 12 11 12 10 8 7 6 7 7 8
1 1 1 1 1 2 2 2 4 3 2 1 2 4 3 2 2 2 2 2 3 3 2 2 1 1 3 1 2 2 3 4 5 5 5 5 6 6 6 6 7 7 9 10 9 8 5 5 5 11 5 10 5 8 17 16 13 14 16 19 23 24 24 25 24 24 24 21 18 15 16 18 18 15 13 14 10 7 10 11 10 9 7 7 7 7
1 2 1 0 1 1 1 1 3 2 3 3 3 3 1 1 2 2 1 2 4 4 2 2 2 2 2 2 5 5 5 4 3 4 3 4 4 3 3 3 3 3 4 7 8 8 4 3 4 11 9 7 7 10 14 15 14 14 13 15 18 19 20 22 22 23 24 22 20 17 17 19 18 15 13 13 10 7 9 11 11 10 9 8 8 8
2 1 2 0 1 2 1 1 2 3 2 2 4 3 1 1 1 1 1 1 1 3 3 3 3 2 2 3 6 7 6 5 1 4 4 2 3 4 4 4 2 3 4 5 5 5 4 3 6 12 13 13 12 12 14 15 14 13 12 12 14 14 15 18 20 22 24 24 22 19 19 20 18 15 14 13 10 8 9 11 11 10 9 10 10 9
1 2 2 0 0 2 1 2 1 2 2 2 3 3 3 3 3 3 3 1 0 1 2 3 4 2 3 3 5 7 6 5 1 5 5 4 5 5 5 4 4 4 5 6 5 4 5 5 8 11 12 12 12 12 13 13 13 13 11 11 12 12 13 16 18 19 20 21 22 20 19 20 19 17 15 13 11 11 11 12 12 11 11 11 10 9
2 2 2 1 0 0 1 1 0 1 1 2 1 1 2 2 2 3 4 3 2 1 1 1 2 3 3 5 5 6 5 2 1 6 7 6 6 7 7 6 5 5 5 5 5 5 6 8 11 13 14 12 10 9 11 12 12 12 10 10 11 11 11 14 16 17 16 17 18 18 18 18 18 17 15 13 12 13 13 13 13 13 12 12 12 10
1 2 2 1 0 1 1 1 1 1 1 2 3 3 0 0 1 2 1 2 3 2 2 2 2 3 3 5 5 5 5 4 4 6 9 8 6 7 8 5 4 5 6 6 7 7 9 12 14 14 15 13 9 6 7 9 10 10 8 8 9 8 8 11 14 14 13 13 13 14 16 16 16 15 14 14 13 13 15 15 14 14 14 13 13 12
0 1 2 3 2 1 1 2 2 1 1 2 2 2 2 1 3 3 2 1 3 2 2 3 3 3 2 4 6 7 7 7 7 6 7 8 6 7 7 5 5 6 8 9 10 10 11 13 14 14 15 14 11 6 3 5 6 6 5 3 4 5 5 7 10 11 11 10 9 10 13 14 14 15 15 14 13 13 16 18 16 15 15 15 15 13
1 1 0 2 4 5 4 3 1 1 1 1 2 3 4 2 1 2 3 2 3 3 2 2 2 4 3 5 8 9 8 8 8 7 8 8 7 8 7 5 5 7 9 10 10 10 10 11 13 15 15 14 13 10 5 3 4 3 1 1 3 3 4 5 7 8 9 10 8 8 10 13 14 15 16 16 15 15 17 20 19 17 16 17 16 16
2 2 3 3 2 1 1 1 1 0 1 2 2 5 5 4 4 0 3 2 2 4 3 1 2 7 3 6 8 8 8 7 7 7 7 8 8 8 7 7 7 8 9 9 9 9 10 10 12 14 14 13 13 11 10 9 7 4 2 1 2 3 4 4 5 6 8 10 10 7 7 10 14 16 16 16 15 15 17 20 21 19 18 18 18 16
3 3 4 6 6 4 2 2 2 2 4 4 2 3 5 6 5 1 3 2 2 4 3 1 2 5 3 6 6 6 7 6 6 7 7 7 7 7 7 8 10 11 11 11 11 11 11 10 11 13 14 13 12 12 14 15 12 7 3 2 2 3 3 4 4 6 7 9 9 7 6 8 11 13 15 15 14 14 16 20 22 21 20 19 19 17
5 1 3 3 5 6 6 5 6 6 5 4 4 4 5 7 6 4 3 2 1 1 2 4 6 5 3 4 4 5 5 5 7 7 7 7 7 9 10 11 12 13 13 13 13 12 12 11 11 13 14 15 15 15 16 16 15 12 7 3 2 3 3 4 4 6 8 9 10 9 7 8 10 11 13 14 15 15 16 19 21 22 21 20 20 18
4 2 1 2 4 6 6 6 7 6 5 4 6 7 5 6 7 7 5 4 4 6 6 9 11 8 3 2 3 4 3 4 7 7 8 9 9 11 13 13 13 13 13 13 12 11 11 11 12 14 16 16 17 17 16 15 16 16 13 7 3 2 3 3 4 6 8 10 11 11 9 9 9 10 12 14 15 16 17 18 19 21 21 20 19 16
2 3 3 3 3 2 3 5 5 5 5 4 5 5 5 5 6 6 5 4 6 7 6 9 11 8 3 2 3 3 2 5 8 10 11 10 10 12 13 13 13 13 13 12 12 11 11 12 13 15 15 16 15 16 17 16 17 19 20 15 9 5 4 4 4 5 7 8 9 10 10 9 9 9 11 11 12 13 14 15 17 18 18 18 17 14
2 3 3 3 3 3 1 2 2 3 5 3 1 3 4 3 2 3 3 2 2 5 7 6 6 5 3 3 5 5 7 10 12 11 11 10 11 13 14 13 13 13 12 12 12 12 12 12 13 14 14 15 15 15 17 17 18 21 22 21 18 12 8 6 5 5 7 8 8 8 9 9 10 10 10 10 11 11 11 12 14 15 16 16 15 12
2 5 5 3 4 3 3 3 2 3 2 3 2 2 2 2 3 3 4 5 4 1 4 3 4 5 4 4 6 9 10 12 11 9 8 9 11 13 13 13 12 12 11 11 11 12 12 11 13 14 14 16 17 17 18 19 20 20 20 21 21 19 16 13 10 9 8 8 8 8 8 8 9 10 11 11 11 11 10 11 13 14 14 14 12 11
3 6 4 2 3 3 3 4 3 2 2 2 3 2 3 1 5 5 5 6 5 3 3 5 8 8 6 5 8 10 10 10 9 8 8 8 9 11 12 12 12 11 11 11 11 11 12 12 14 15 16 17 20 21 21 22 22 20 19 19 18 18 18 17 16 15 14 12 10 9 8 7 8 9 10 11 11 12 12 13 14 15 14 13 11 12
3 4 2 1 2 3 3 4 4 4 2 4 5 2 2 5 9 12 11 9 8 7 8 11 11 9 8 8 8 10 10 9 10 10 10 9 8 9 11 10 10 11 11 10 10 11 13 14 15 16 17 19 21 22 22 23 22 20 19 19 18 16 15 14 15 15 15 14 13 13 12 10 8 8 9 9 9 10 11 12 13 15 15 14 15 16
3 3 2 2 2 3 4 4 3 1 2 4 4 3 4 5 6 9 10 9 7 5 6 11 11 9 9 9 8 8 8 8 9 10 9 9 8 8 8 7 7 8 8 8 10 12 13 14 14 15 17 19 20 21 22 22 22 21 19 19 18 18 15 13 13 13 14 13 12 12 12 12 11 9 8 9 8 8 9 10 10 12 13 14 16 16
2 2 3 2 1 2 3 2 0 2 2 1 3 2 1 1 1 1 4 5 4 4 3 8 10 8 7 6 5 4 2 4 7 8 8 9 8 7 8 7 7 8 8 8 10 11 12 13 13 14 17 18 18 19 20 20 21 20 18 18 18 18 16 15 14 14 14 13 11 11 10 10 11 11 10 9 10 9 8 8 9 10 12 13 14 13
3 2 2 2 1 1 2 2 1 1 2 3 3 1 1 0 1 1 2 4 2 3 1 4 6 5 4 3 3 2 2 2 5 5 6 8 8 7 7 8 9 9 9 9 10 11 12 15 15 14 17 17 17 18 18 18 18 17 16 17 18 17 15 14 14 15 15 14 13 11 10 10 11 11 11 11 10 11 10 9 10 11 12 13 13 12
6 4 2 3 2 1 2 3 3 2 1 1 1 2 3 2 2 2 2 4 2 1 1 3 5 3 2 2 2 3 3 2 3 3 4 6 7 7 7 8 9 9 9 10 10 10 11 14 15 15 17 18 18 20 19 17 17 15 13 15 16 15 13 13 15 15 15 15 15 14 12 10 9 7 8 10 10 8 9 9 10 11 12 13 14 15
5 4 2 2 2 1 1 1 1 2 1 2 2 4 5 1 3 4 4 4 3 1 1 4 6 4 2 2 2 2 1 1 3 3 4 5 5 6 7 8 9 10 10 10 11 11 11 13 14 15 15 16 18 19 20 19 18 15 13 14 15 13 12 14 16 17 17 16 16 15 14 12 10 6 5 6 6 6 10 12 13 14 14 15 15 16
3 3 1 2 2 0 1 1 0 1 1 1 4 5 4 1 4 4 2 3 4 3 2 4 5 4 4 3 3 3 3 3 3 3 4 4 5 6 7 8 8 9 10 10 11 12 12 12 12 13 13 15 18 19 20 20 18 14 13 14 14 13 14 16 17 17 17 17 17 16 16 14 13 12 9 7 6 9 14 16 16 17 17 18 18 17
2 2 1 1 2 1 1 2 1 1 1 2 4 4 2 2 3 2 2 2 4 5 4 4 5 4 4 5 5 4 3 3 3 3 4 5 5 6 7 8 9 9 10 11 11 13 13 13 12 13 14 16 18 19 20 21 18 15 14 14 13 14 17 18 18 18 17 17 17 17 16 15 15 14 13 10 9 11 15 18 18 19 20 20 20 20
2 1 1 1 1 1 2 2 1 2 2 4 4 2 1 1 2 4 4 3 3 5 4 4 4 3 3 5 4 3 3 3 3 3 4 4 4 6 7 8 10 11 12 12 13 14 14 14 14 15 15 16 18 18 18 18 18 17 17 16 17 18 20 19 19 19 19 19 18 17 17 16 15 15 15 13 12 12 15 19 20 21 21 22 22 22
3 2 1 1 0 0 1 2 1 0 3 4 2 2 4 4 3 3 4 4 3 3 3 3 4 3 3 4 3 3 3 3 3 4 4 5 5 6 7 8 9 10 11 12 13 13 13 14 15 16 17 17 17 17 15 15 15 16 17 20 22 22 22 22 21 20 20 20 20 19 18 17 16 16 15 15 14 13 14 17 20 21 22 23 24 23
3 2 1 2 2 2 3 3 2 1 3 4 4 5 6 6 4 3 4 5 3 2 2 3 4 4 3 3 3 3 4 4 4 4 4 5 5 6 7 8 8 9 9 10 11 11 12 13 14 15 16 16 16 16 15 14 14 16 18 20 21 22 23 22 22 21 20 19 19 19 19 18 18 17 16 16 16 15 13 13 16 19 21 23 24 23
2 1 1 2 4 4 5 4 2 2 3 5 6 6 5 5 4 3 4 4 3 2 2 2 3 4 3 3 3 3 3 3 3 4 4 5 6 7 8 8 8 8 9 10 10 11 12 12 13 13 15 15 15 15 14 14 14 16 18 18 19 20 21 20 20 20 21 20 19 19 19 19 19 18 16 16 17 17 16 13 14 16 18 21 24 24
1 1 2 3 3 2 3 3 2 2 2 3 3 3 3 3 3 2 3 3 2 3 4 3 4 4 3 4 4 3 3 4 4 5 5 5 6 8 9 9 9 10 11 11 12 13 13 13 13 13 15 15 15 14 15 15 15 16 17 17 17 18 19 19 19 20 21 21 20 18 17 17 18 19 18 16 17 16 19 22 22 20 19 21 24 24
1 1 2 3 1 1 3 4 3 1 1 0 1 2 2 2 3 3 3 4 4 4 4 4 4 4 3 4 4 4 4 5 5 6 6 6 6 7 9 10 12 13 13 14 15 15 14 14 15 16 17 17 16 16 17 17 17 18 18 18 18 18 18 19 19 19 20 21 20 20 19 17 17 18 17 16 16 15 16 23 27 23 21 24 25 24
1 0 1 2 3 3 3 3 3 2 2 3 2 1 1 2 4 5 5 5 5 5 5 4 4 4 3 3 3 4 5 5 6 7 7 7 7 10 12 13 14 15 15 15 15 14 14 15 16 17 18 18 18 18 18 18 19 19 19 19 19 18 19 20 20 20 20 20 19 21 21 19 18 17 15 15 16 15 13 16 22 23 23 25 26 25
1 2 2 3 4 3 2 5 6 3 2 3 3 2 3 3 5 6 5 5 4 4 3 3 3 2 2 2 3 4 5 5 6 8 8 8 10 13 15 15 16 16 16 16 15 15 15 15 16 17 18 19 18 18 18 19 20 20 20 20 19 19 20 20 20 21 20 19 18 19 20 19 18 17 16 16 16 15 14 14 17 22 26 28 28 28
0 2 2 2 3 1 2 6 6 2 2 2 3 3 3 3 4 5 5 4 4 4 3 2 2 1 2 2 3 4 5 6 8 9 10 10 13 15 15 15 16 17 17 16 15 15 16 17 17 18 19 19 19 19 19 19 20 21 21 21 20 20 21 21 21 21 21 19 18 18 18 19 18 17 16 16 16 16 16 13 11 14 19 22 25 27
Wind_Direction
193 174 179 201 196 197 199 189 144 118 114 127 132 171 212 240 258 254 245 299 267 237 235 208 221 228 195 183 187 182 185 196 200 196 197 197 198 203 205 205 205 209 206 198 200 191 181 183 187 191 195 201 202 202 202 193 187 190 187 178 181 188 191 191 192 193 191 184 179 180 178 174 160 139 123 117 121 129 129 123 119 127 122 120 127 122
208 188 214 224 197 178 169 145 121 118 110 122 160 214 237 222 251 265 163 347 304 227 247 139 217 230 186 189 187 184 192 200 204 201 198 201 206 210 211 210 208 209 194 189 194 182 182 185 188 194 197 199 200 199 200 196 193 190 187 183 184 188 190 192 196 193 192 189 179 172 168 163 151 140 134 123 114 112 110 111 113 114 114 119 126 122
197 207 229 217 145 101 105 133 137 126 122 131 156 233 230 204 257 277 122 14 24 214 257 114 194 214 43 178 183 192 206 207 210 211 208 206 212 217 216 211 209 209 195 193 192 180 185 185 187 197 199 199 200 200 202 200 195 189 185 187 188 189 186 190 196 193 191 185 172 164 160 158 149 137 128 118 112 110 109 107 105 106 108 115 118 114
190 233 235 166 140 128 111 130 136 120 155 178 168 214 217 151 241 214 124 38 30 269 254 136 142 49 64 147 167 214 199 174 192 207 207 212 221 223 218 215 210 210 206 199 194 183 187 184 184 197 202 200 198 201 206 204 198 190 188 191 193 192 189 192 197 193 188 173 159 155 152 149 141 131 125 118 116 115 113 109 104 103 104 106 108 115
218 273 105 127 148 155 127 137 161 164 196 214 212 215 221 191 216 236 57 36 203 49 67 120 134 88 89 165 196 338 68 110 125 177 188 205 228 231 223 220 216 216 214 203 197 189 187 186 185 194 202 200 196 200 205 206 202 196 195 196 196 196 194 196 197 192 183 166 154 148 142 138 131 128 129 126 127 127 122 113 102 99 103 103 99 111
243 165 132 133 137 159 146 166 193 191 190 226 219 215 223 203 200 255 309 155 177 119 63 45 177 151 89 176 197 203 211 182 143 197 212 208 225 233 226 223 219 219 217 204 197 195 189 187 187 192 201 199 195 199 204 205 204 200 200 201 199 197 196 197 195 190 181 167 158 151 144 141 136 135 139 138 140 141 133 120 104 100 113 110 97 101
231 125 144 150 141 169 182 215 207 188 184 218 212 202 206 189 154 222 239 209 195 116 63 333 266 156 115 173 193 198 214 215 203 218 226 218 225 231 226 224 221 214 213 204 192 195 196 189 187 190 198 200 197 197 198 199 202 202 202 203 201 198 197 195 191 185 178 168 163 159 151 146 146 147 150 151 150 148 141 128 108 105 118 123 110 105
155 126 114 128 122 158 192 228 200 181 183 197 169 170 175 184 192 188 185 173 104 71 113 346 325 164 145 127 260 200 203 217 227 225 223 216 221 229 223 217 218 215 212 207 195 195 199 193 192 193 193 199 201 195 191 192 199 205 205 203 201 198 195 191 186 182 178 171 167 164 153 147 149 149 150 153 153 149 144 132 119 112 115 119 116 114
145 173 178 155 125 179 206 219 178 176 192 277 124 140 148 161 171 153 147 116 60 236 186 68 352 190 156 115 201 199 196 210 224 227 223 215 215 224 223 211 210 212 209 207 200 192 196 193 194 194 189 196 201 195 191 192 199 204 203 200 196 191 188 185 182 179 178 177 174 167 154 147 148 145 146 150 150 149 146 138 129 120 115 111 106 105
143 213 185 163 176 219 217 158 170 179 196 136 130 107 93 88 82 84 117 117 93 227 194 26 347 221 172 146 160 182 194 213 231 232 225 221 219 220 222 212 204 201 199 201 196 188 191 189 190 192 189 192 195 196 196 195 196 195 192 189 184 180 179 179 179 178 178 180 180 171 156 149 149 147 146 148 147 147 147 144 135 126 119 109 95 90
3 339 147 185 218 189 114 75 131 166 114 145 139 100 92 70 50 61 39 67 173 203 170 357 334 279 189 184 183 169 139 314 300 288 256 239 234 225 222 217 205 198 193 189 185 181 180 179 184 188 184 185 191 195 196 192 189 186 181 176 171 172 175 177 178 177 177 181 185 175 161 155 155 153 150 148 147 148 148 145 137 130 123 111 99 96
340 269 213 236 205 127 109 88 59 31 102 146 139 117 129 72 35 104 31 97 202 187 97 360 322 273 211 182 181 289 360 332 294 289 296 292 268 242 224 215 205 198 189 183 180 172 166 167 176 181 179 181 187 191 192 192 188 179 170 166 161 163 170 172 173 174 176 182 186 178 167 165 162 156 153 149 149 152 152 146 137 127 122 115 111 111
269 225 267 312 215 169 138 101 89 74 92 149 129 141 163 155 161 197 207 205 221 199 76 357 299 239 241 269 314 315 331 332 304 286 290 290 285 278 240 217 204 192 187 185 178 168 164 165 172 181 181 178 184 192 192 191 183 168 160 159 152 149 159 167 170 176 182 186 187 182 176 174 166 157 151 148 151 156 157 152 137 124 126 127 125 129
232 240 300 248 219 193 179 167 154 171 192 185 160 162 175 156 158 196 184 207 250 222 80 338 265 202 200 313 296 310 328 332 322 309 298 289 288 302 275 205 177 161 170 168 152 146 148 154 167 180 185 187 194 193 189 184 171 148 132 124 115 117 150 172 180 186 189 190 189 186 183 178 167 159 153 148 150 154 161 158 134 121 137 143 139 141
208 235 204 193 190 167 188 194 159 142 161 178 150 157 178 168 177 209 200 198 211 157 85 167 216 185 157 107 330 319 330 343 345 343 345 345 337 34 93 117 120 115 113 112 110 109 107 108 136 182 194 201 201 194 182 145 110 96 89 87 90 124 186 190 190 192 191 193 194 189 184 175 164 161 159 153 146 144 155 159 133 123 139 151 149 148
215 258 249 267 328 174 197 192 109 117 136 130 71 150 185 185 156 140 164 164 172 141 124 188 227 273 187 310 323 316 349 10 11 11 26 51 76 92 95 96 99 101 104 106 105 102 103 99 81 41 347 256 229 208 132 100 94 92 94 102 149 216 216 203 199 199 197 199 199 189 179 171 165 163 166 164 150 136 143 151 131 122 136 150 153 152
157 256 283 345 114 180 255 177 114 187 163 134 170 179 180 92 117 118 119 55 7 202 174 159 225 254 217 180 182 186 112 53 30 27 51 71 89 98 100 107 110 107 104 98 91 81 68 88 95 73 13 284 270 197 104 102 106 133 167 183 202 218 218 209 207 207 204 201 199 189 177 174 171 168 174 178 159 134 136 147 135 125 138 147 150 155
196 225 340 36 128 59 316 146 90 24 111 144 179 166 137 74 84 115 149 98 137 207 175 96 264 209 199 171 145 156 128 93 69 61 81 92 99 105 107 115 118 116 111 98 85 71 31 11 99 108 180 251 268 101 113 123 158 185 193 201 205 211 214 213 213 212 208 204 202 196 187 184 181 179 185 188 171 138 136 148 144 137 149 153 151 156
190 228 320 293 184 31 347 157 114 60 25 45 151 137 134 187 170 153 166 156 180 199 163 142 230 255 213 168 39 41 39 57 78 80 92 105 107 110 110 112 115 117 116 109 101 92 56 335 74 98 156 232 234 115 129 147 174 186 198 203 199 203 210 214 215 213 212 212 215 215 206 196 189 188 194 192 185 159 147 156 157 151 158 163 162 161
119 233 242 213 274 334 8 207 175 129 56 58 117 116 25 273 176 168 162 169 189 191 159 153 193 224 186 12 335 319 343 4 90 106 106 114 104 84 67 62 74 78 91 107 112 113 125 219 124 99 111 154 142 124 137 155 174 189 203 205 198 198 204 210 213 214 217 222 229 229 213 200 192 193 201 198 199 194 168 167 167 158 161 171 173 170
86 211 214 22 301 219 180 338 230 180 119 122 153 158 141 73 111 177 107 47 198 178 161 171 187 182 84 14 308 295 313 321 293 133 128 105 50 27 23 13 19 64 69 76 93 103 112 137 120 109 113 124 125 126 138 155 173 185 199 207 204 201 209 220 222 222 227 230 234 229 209 199 195 199 208 204 205 211 191 182 179 171 174 181 181 178
119 176 186 181 224 182 86 18 298 243 203 178 180 177 158 129 142 169 166 143 325 160 164 184 179 141 45 358 308 302 305 303 263 136 121 80 54 39 36 35 30 48 61 63 71 86 99 97 90 90 97 105 110 117 132 149 168 184 197 206 205 208 222 231 229 228 231 230 229 222 207 202 202 206 212 208 210 219 207 196 195 191 189 188 187 186
134 115 122 94 65 207 339 21 54 248 163 131 74 119 148 141 147 177 192 175 144 142 147 184 179 131 35 354 330 323 326 324 143 127 109 87 76 67 61 62 60 64 71 76 79 73 75 77 74 72 71 73 84 106 130 148 165 182 199 209 210 211 217 227 232 232 231 226 221 217 212 211 211 213 213 209 215 224 216 205 205 205 201 196 194 191
144 95 87 91 335 314 274 176 116 91 142 103 51 43 94 242 93 132 180 152 153 161 146 171 189 134 51 357 346 352 14 60 90 105 105 103 97 83 71 54 48 70 68 60 60 56 55 59 61 63 64 63 68 96 130 148 162 179 198 215 221 219 216 227 237 238 232 225 219 218 216 214 214 216 214 211 217 227 223 215 213 213 212 208 205 204
240 46 98 120 140 143 169 187 176 150 73 69 56 8 335 40 96 114 95 112 174 180 164 189 186 125 74 10 13 17 36 71 74 73 91 99 97 88 74 41 26 47 50 45 46 46 46 50 51 53 57 57 53 51 90 137 149 169 190 220 243 246 243 240 244 246 239 228 219 219 221 219 219 220 221 223 229 234 230 224 221 220 219 217 216 217
88 64 34 154 174 182 176 175 173 159 102 63 55 13 2 14 94 131 128 170 196 172 164 208 155 129 100 20 21 20 30 60 63 56 66 73 77 78 72 55 41 45 47 44 43 44 44 47 49 50 51 51 47 40 37 69 94 108 138 249 270 280 280 266 258 255 249 243 236 229 230 232 232 231 233 239 245 243 234 228 227 226 225 225 225 225
101 72 21 44 108 138 132 74 337 276 103 55 25 15 6 336 310 9 129 174 185 147 157 273 121 141 119 11 9 12 21 41 47 46 57 62 63 68 67 62 57 53 53 49 45 45 44 45 48 50 52 51 46 40 42 49 52 50 37 326 295 295 294 285 274 267 263 259 255 244 236 240 241 240 240 243 247 244 235 230 230 230 231 233 234 234
86 50 11 40 61 52 40 44 27 63 83 70 31 3 357 344 329 356 115 127 145 150 169 194 105 131 94 10 2 8 16 35 44 46 58 62 64 71 68 64 61 57 56 53 48 46 45 43 45 48 53 54 47 43 47 51 52 48 32 354 318 302 296 294 287 283 283 280 273 261 244 243 246 243 240 242 247 245 238 234 233 234 234 234 237 240
110 76 350 40 59 52 47 46 51 68 82 82 64 33 11 9 14 37 48 356 284 161 143 127 110 97 67 19 12 18 26 53 64 66 70 68 70 75 69 63 60 56 54 53 50 49 49 47 46 46 47 49 47 46 47 52 56 57 51 31 343 317 309 299 292 289 288 287 286 280 268 260 253 243 237 241 248 250 245 239 236 237 238 235 235 241
127 132 143 112 56 27 19 18 32 54 66 59 46 38 39 45 50 64 56 26 54 74 89 109 103 86 56 15 22 31 38 67 75 74 70 65 67 72 68 63 60 56 54 53 51 51 53 51 50 48 46 45 43 45 45 46 52 58 60 58 34 357 338 319 306 296 288 286 286 286 282 274 262 250 244 242 245 249 249 244 241 241 240 237 235 239
119 150 162 123 78 360 353 4 8 36 57 52 44 41 42 47 54 72 80 60 70 84 94 99 94 85 52 32 55 64 71 79 75 67 62 59 61 68 69 63 61 59 57 55 54 53 51 49 47 45 44 43 41 44 43 40 44 51 56 58 55 43 16 353 339 319 308 303 296 290 284 277 269 260 253 247 246 248 248 246 244 241 239 238 235 233
72 122 143 128 159 205 120 60 353 29 36 1 360 49 29 28 57 69 67 29 59 124 130 110 91 94 97 90 89 84 77 76 70 64 63 60 56 62 66 62 59 58 54 52 51 49 48 46 44 42 40 40 38 39 38 37 39 43 46 51 54 52 44 25 5 343 329 322 315 304 292 283 277 268 259 251 247 247 245 242 240 235 234 233 226 218
106 139 146 154 173 169 95 111 117 58 23 294 296 49 29 73 115 93 52 21 358 141 154 133 113 120 130 123 99 82 72 69 64 57 57 57 56 58 59 57 55 51 46 43 42 40 39 38 39 38 37 36 35 35 36 36 38 38 38 44 50 53 55 52 42 28 10 352 336 322 304 289 283 276 269 259 250 245 243 238 235 233 233 228 214 211
129 139 140 142 153 139 103 104 112 133 194 272 343 301 266 91 96 94 63 29 17 44 90 98 113 125 130 119 100 88 78 70 67 59 50 49 54 56 53 48 46 43 40 37 36 34 30 28 31 32 32 32 32 33 35 34 34 34 32 34 41 47 51 53 52 50 44 36 24 7 345 317 291 278 272 266 258 252 248 245 243 239 234 227 218 229
121 116 110 86 98 118 122 123 142 182 234 343 349 307 180 119 104 97 77 46 39 70 96 104 113 123 120 108 99 95 90 83 75 64 53 49 52 58 55 43 35 35 32 25 26 29 25 22 24 24 24 27 29 29 30 28 27 27 25 25 28 32 35 39 43 45 43 41 38 30 21 6 336 300 278 266 261 256 250 247 246 243 239 236 237 242
132 121 103 80 81 126 150 160 172 217 340 5 30 74 113 122 116 98 77 51 30 35 92 111 116 121 119 114 109 104 101 94 79 62 50 48 47 54 58 46 34 36 29 12 12 20 20 17 18 17 17 22 25 23 21 19 17 18 17 16 17 18 18 18 20 21 23 24 25 25 25 24 14 348 308 276 260 251 243 237 234 236 236 234 233 234
109 131 116 96 69 137 141 147 49 336 313 148 119 110 124 124 118 93 87 73 32 360 66 118 125 129 129 129 128 122 124 105 84 59 39 38 39 46 54 49 40 40 35 20 14 16 17 15 15 15 15 18 21 17 14 11 9 9 9 8 8 8 7 7 5 3 1 1 3 5 4 5 9 7 348 306 269 251 245 241 235 230 225 222 220 218
52 55 125 131 120 103 121 132 147 231 230 176 142 104 352 23 262 246 122 105 63 347 357 127 129 132 143 155 156 173 217 120 91 62 27 25 26 31 41 39 35 34 31 25 20 15 14 15 15 14 12 13 13 10 6 3 1 0 0 1 1 359 359 360 357 352 348 342 340 341 341 341 347 355 354 336 299 266 254 244 228 215 209 206 201 190
50 38 68 106 116 154 156 161 178 188 199 67 91 335 331 308 221 208 158 139 123 339 282 138 119 111 129 142 141 166 201 178 114 84 26 15 16 21 26 25 25 26 24 23 22 16 13 13 12 10 11 10 6 2 358 355 353 352 350 350 349 348 350 353 350 345 341 334 329 323 318 323 333 337 336 331 313 274 242 216 193 183 180 178 172 163
46 28 40 98 127 180 177 176 202 182 85 4 324 315 326 344 161 186 191 163 141 162 201 121 106 91 86 104 120 129 124 91 97 76 22 5 12 20 22 17 13 14 14 15 15 11 8 10 10 8 7 5 360 356 353 351 349 347 342 339 337 336 339 341 339 337 334 329 325 321 313 307 310 312 304 302 287 228 195 184 178 172 169 168 165 158
53 33 36 119 122 119 180 146 54 152 152 299 305 314 323 207 183 201 196 130 126 143 142 100 94 82 66 66 76 76 61 47 57 52 19 8 15 18 18 14 8 8 9 7 6 4 1 1 3 1 357 353 350 348 347 347 347 344 338 332 328 326 327 326 325 325 324 323 321 319 315 306 299 297 293 286 265 218 195 188 186 181 176 174 172 165
50 49 53 100 99 91 131 115 77 136 97 344 311 306 298 220 195 161 104 104 123 131 126 102 96 89 74 72 75 80 73 55 43 34 21 18 17 9 6 4 2 2 1 358 358 359 354 348 347 347 345 342 341 339 338 338 337 334 331 327 322 320 320 318 315 313 312 312 311 311 312 307 299 293 287 284 276 246 220 208 199 190 184 181 177 172
18 42 96 91 91 131 119 102 172 164 53 349 308 279 341 18 129 117 114 126 128 124 124 112 101 100 94 87 85 88 85 69 48 27 16 19 18 4 359 0 357 353 352 350 349 350 347 340 336 336 335 333 332 331 330 328 325 321 318 313 309 312 313 312 310 309 305 303 301 301 303 304 300 292 281 273 274 263 239 219 203 194 190 187 182 178
9 4 124 115 359 277 126 109 116 46 360 345 331 101 74 71 104 124 118 116 118 122 121 106 97 95 86 82 83 85 73 52 32 20 10 7 5 355 350 351 348 345 344 342 340 340 339 333 328 327 325 324 325 324 322 320 314 308 304 300 300 303 305 305 306 306 303 300 297 294 295 297 298 296 283 268 263 259 245 227 212 201 196 192 186 182
28 17 53 70 51 37 64 88 95 23 360 14 52 82 82 80 82 75 80 90 95 96 97 93 96 97 80 64 61 58 50 31 15 12 2 350 346 340 337 337 336 335 334 331 331 332 330 323 318 316 315 316 317 316 314 311 305 297 294 295 298 299 299 300 301 301 300 300 297 293 290 290 291 294 290 277 262 250 247 242 223 206 199 196 192 186
53 12 9 75 102 86 62 59 61 54 38 33 43 58 64 63 56 54 69 80 73 69 75 75 84 86 71 58 58 49 40 27 2 355 352 339 331 330 333 331 329 331 331 327 327 327 322 316 312 309 309 310 312 310 307 304 298 292 291 294 296 296 294 294 293 292 291 291 290 289 288 286 284 286 288 287 275 254 242 236 224 212 207 201 195 188
37 24 70 102 126 116 100 125 135 87 65 43 43 60 65 56 44 37 62 82 78 69 70 66 70 73 56 48 47 25 13 14 358 347 345 337 330 332 334 335 335 335 332 330 328 326 322 317 314 312 311 312 312 310 307 304 298 293 293 294 294 293 291 287 284 281 280 280 280 281 281 280 280 280 280 286 288 269 243 233 232 231 224 211 199 190
16 34 97 107 93 56 108 140 146 94 76 104 78 105 117 98 85 72 78 95 93 78 72 66 62 60 45 39 35 9 354 1 358 347 339 331 329 333 335 335 335 332 329 328 327 324 322 318 315 315 314 313 312 310 307 305 301 298 296 294 292 291 288 283 280 276 273 271 270 271 271 271 273 275 274 276 285 282 256 241 238 233 226 220 210 196
325 338 110 108 100 87 98 141 169 170 182 200 183 126 137 131 111 99 94 99 97 89 82 71 58 55 48 38 28 359 345 349 353 346 336 330 333 336 334 333 331 328 327 326 324 323 321 316 314 314 312 311 311 309 305 302 301 299 297 294 291 288 284 281 281 278 273 269 265 263 263 264 263 264 266 267 271 276 272 256 242 229 221 218 212 203
228 143 130 124 127 132 158 173 174 166 157 189 183 131 125 146 131 118 114 109 110 118 118 101 88 86 75 50 23 355 340 337 340 339 334 330 332 332 330 328 327 326 326 325 323 320 318 315 313 310 307 305 305 303 300 299 298 296 294 292 289 285 282 280 280 279 275 270 264 258 256 256 255 254 255 257 258 261 270 272 255 236 225 219 214 213
138 139 154 152 140 144 189 169 164 120 61 134 150 125 131 159 142 127 127 127 127 138 135 110 88 51 19 12 356 342 331 324 329 333 329 327 328 328 325 323 323 323 322 322 321 319 317 316 313 309 305 304 304 301 298 297 295 293 291 289 285 282 278 275 274 274 274 271 268 262 257 254 252 250 249 250 250 251 254 254 244 234 229 228 229 230